[TLELIST] Archives

 

[TLELIST] Current TLEs

September 29th 2025 PST

0 HST 1 20580U 90037B 25271.77905519 .00012641 00000-0 46110-3 0 9993 2 20580 28.4687 62.1579 0002615 120.7705 239.3148 15.26559943748523 0 ISS (ZARYA) 1 25544U 98067A 25272.11352776 .00016154 00000-0 29563-3 0 9995 2 25544 51.6321 151.9589 0001160 174.5879 185.5122 15.49493379531284 0 CXO 1 25867U 99040B 25272.57265787 .00001049 00000-0 00000-0 0 9999 2 25867 51.5546 125.3902 8260299 310.4462 0.4233 0.37800873 16335 ...Continue Reading

[TLELIST] Current TLEs

September 28th 2025 PST

0 HST 1 20580U 90037B 25270.60229101 .00010348 00000-0 37647-3 0 9997 2 20580 28.4683 70.1493 0002669 109.6281 250.4602 15.26531087748345 0 ISS (ZARYA) 1 25544U 98067A 25271.14609814 .00019357 00000-0 35289-3 0 9995 2 25544 51.6325 156.7474 0001396 176.1819 183.9180 15.49463105531131 0 CXO 1 25867U 99040B 25272.57265787 .00001049 00000-0 00000-0 0 9999 2 25867 51.5546 125.3902 8260299 310.4462 0.4233 0.37800873 16335 ...Continue Reading

[TLELIST] Current TLEs

September 27th 2025 PST

0 HST 1 20580U 90037B 25269.75239279 .00010298 00000-0 37481-3 0 9998 2 20580 28.4680 75.9211 0002700 101.7078 258.3820 15.26513054748215 0 ISS (ZARYA) 1 25544U 98067A 25269.92065904 .00016416 00000-0 30111-3 0 9996 2 25544 51.6332 162.8128 0001049 155.2675 204.8364 15.49415038530943 0 CXO 1 25867U 99040B 25272.57265787 .00001049 00000-0 00000-0 0 9999 2 25867 51.5546 125.3902 8260299 310.4462 0.4233 0.37800873 16335 ...Continue Reading

[TLELIST] Current TLEs

September 26th 2025 PST

0 HST 1 20580U 90037B 25269.16399598 .00011032 00000-0 40219-3 0 9994 2 20580 28.4674 79.9171 0002756 96.0742 264.0167 15.26502301748123 0 ISS (ZARYA) 1 25544U 98067A 25268.88924235 .00024001 00000-0 42185-3 0 9994 2 25544 51.6319 167.9312 0003311 8.6325 351.4720 15.50358116530788 0 CXO 1 25867U 99040B 25269.92889251 .00000947 00000-0 00000-0 0 9998 2 25867 51.5121 125.4703 8263672 310.4534 0.4622 0.37804985 16321 ...Continue Reading

[TLELIST] Current TLEs

September 25th 2025 PST

0 HST 1 20580U 90037B 25267.59491433 .00010528 00000-0 38387-3 0 9992 2 20580 28.4660 90.5714 0002787 80.9986 279.0924 15.26466901747880 0 ISS (ZARYA) 1 25544U 98067A 25268.18031108 .00023151 00000-0 40291-3 0 9996 2 25544 51.6335 171.4428 0004262 17.1558 342.9575 15.50657957530679 0 CXO 1 25867U 99040B 25269.92889251 .00000947 00000-0 00000-0 0 9998 2 25867 51.5121 125.4703 8263672 310.4534 0.4622 0.37804985 16321 ...Continue Reading

[TLELIST] Current TLEs

September 24th 2025 PST

0 HST 1 20580U 90037B 25267.20263805 .00010942 00000-0 39935-3 0 9990 2 20580 28.4657 93.2358 0002770 77.0094 283.0810 15.26459178747820 0 ISS (ZARYA) 1 25544U 98067A 25266.24686783 .00027783 00000-0 48333-3 0 9996 2 25544 51.6338 181.0318 0004269 9.4814 350.6255 15.50560509530377 0 CXO 1 25867U 99040B 25269.92889251 .00000947 00000-0 00000-0 0 9998 2 25867 51.5121 125.4703 8263672 310.4534 0.4622 0.37804985 16321 ...Continue Reading

[TLELIST] Current TLEs

September 23rd 2025 PST

0 HST 1 20580U 90037B 25265.76427387 .00010443 00000-0 38119-3 0 9995 2 20580 28.4665 103.0040 0002770 65.0646 295.0236 15.26427982747606 0 ISS (ZARYA) 1 25544U 98067A 25265.47345447 .00020692 00000-0 36284-3 0 9993 2 25544 51.6340 184.8663 0004275 7.3393 352.7658 15.50517623530256 0 CXO 1 25867U 99040B 25267.28517176 .00000866 00000-0 00000-0 0 9999 2 25867 51.4890 125.5368 8267589 310.4653 0.5162 0.37809362 16317 ...Continue Reading

[TLELIST] Current TLEs

September 22nd 2025 PST

0 HST 1 20580U 90037B 25265.24122450 .00009383 00000-0 34185-3 0 9991 2 20580 28.4666 106.5556 0002764 59.7750 300.3118 15.26417055747526 0 ISS (ZARYA) 1 25544U 98067A 25265.15119281 .00019546 00000-0 34339-3 0 9998 2 25544 51.6340 186.4647 0004285 5.9314 354.1726 15.50504496530205 0 CXO 1 25867U 99040B 25267.28517176 .00000866 00000-0 00000-0 0 9999 2 25867 51.4890 125.5368 8267589 310.4653 0.5162 0.37809362 16317 ...Continue Reading

[TLELIST] Current TLEs

September 22nd 2025 PST

0 HST 1 20580U 90037B 25265.24122450 .00009383 00000-0 34185-3 0 9991 2 20580 28.4666 106.5556 0002764 59.7750 300.3118 15.26417055747526 0 ISS (ZARYA) 1 25544U 98067A 25265.15119281 .00019546 00000-0 34339-3 0 9998 2 25544 51.6340 186.4647 0004285 5.9314 354.1726 15.50504496530205 0 CXO 1 25867U 99040B 25267.28517176 .00000866 00000-0 00000-0 0 9999 2 25867 51.4890 125.5368 8267589 310.4653 0.5162 0.37809362 16317 ...Continue Reading

[TLELIST] Current TLEs

September 22nd 2025 PST

0 HST 1 20580U 90037B 25265.24122450 .00009383 00000-0 34185-3 0 9991 2 20580 28.4666 106.5556 0002764 59.7750 300.3118 15.26417055747526 0 ISS (ZARYA) 1 25544U 98067A 25265.15119281 .00019546 00000-0 34339-3 0 9998 2 25544 51.6340 186.4647 0004285 5.9314 354.1726 15.50504496530205 0 CXO 1 25867U 99040B 25267.28517176 .00000866 00000-0 00000-0 0 9999 2 25867 51.4890 125.5368 8267589 310.4653 0.5162 0.37809362 16317 ...Continue Reading
  • This mailing list is a public mailing list - anyone may join or leave, at any time.
  • This mailing list is announce-only.

International Space Station (ISS) / Hubble Space Telescope (HST) / Chandra X-Ray Observatory Orbital Data via EMAIL

Privacy Policy:

Private list